Погода в Жиганске

Погода в Жиганске : погода сейчас, прогноз погоды и архив. Всё, что Вы хотите узнать о погоде в Жиганске!

Хотите узнать прогноз погоды в Жиганске? Тогда Вам сюда: Погода в Жиганске

Поиск расширенной информации на нашем сайте:

Полезная информация: стоматология в москве

Другие новости

Новости СМИ2

Главная страница сайта

Новости сайта

03.07.2017

Напоминаем, что на нашем специализированном сайте Метеоцентр.Азия вы можете получить высокодетализированные автоматические прогнозы погоды по пунктам России, СНГ и мира в авиационном формате (включающие направление и скорость ветра, видимость, явления погоды, количество и форму облачности, нижнюю и верхнюю границу облачности).

Рекомендуем: Портал о строительстве http://geos-inform.com

Погода в Жиганске - сегодня

Время (UTC), дата Ветер
(°,м/с) 
Видим.   Явления Облачность Т
(°С)
Тd
(°С)
f(%) Тe
(°С)
Pmin
(гПа)
dP
(гПа)
Po
(мм)
O2
(г/м3)
Тmin Tmax R s Состояние
почвы
12 20.09.17 220 (ЮЗ) 20000 м    9/3 1000 м средняя 
[Sc|Ac trans]
+0.9 -1.1 86 1009.4  0.2  748  301    +3.7       
15 20.09.17 170 (Ю) 20000 м    10/0 средняя 
[Ac und]
+0.6 -1.4 86 +1  1008.9  -0.4  748  301           
18 20.09.17 190 (Ю) 20000 м    4/0 средняя 
[Ac trans]
+0.8 -0.9 88 1008.9  748  301           
21 20.09.17 190 (Ю) 20000 м    6/0 средняя, верхняя 
[Ac trans|Ci sp]
-0.3 -1.5 92 -1  1008.4  -0.5  748  302           
00 21.09.17 190 (Ю) 20000 м    10/1 300 м средняя, верхняя 
[St|Ac trans|Ci sp]
+1.2 -1.4 83 +1  1008.1  -0.3  747  300  -0.7        влажная 
03 21.09.17 190 (Ю) 20000 м    10/0 средняя, верхняя 
[Ac trans|Ci sp]
+4.8 -0.8 67 +4  1008  747  296           
06 21.09.17 160 (Ю) 20000 м    10/3 1000 м средняя, верхняя 
[Cu med, cong|Ac trans|Ci sp]
+5.4 -0.4 66 +4  1008.3  0.3  748  295           
09 21.09.17 160 (Ю) 20000 м    10/4 1000 м средняя 
[Sc|Ac As]
+5.2 -0.3 68 +5  1008.6  0.3  748  296           
12 21.09.17 010 (С) 20000 м  слаб. дождь  10/10 660 м 
[Sc]
+3 +1.5 90 +4  1010.8  2.1  749  298    +6  0.0     
15 21.09.17 340 (С) 20000 м  слаб. дождь  10/10 300 м 
[Sc]
+2 +2 100 +3  1011.4  0.6  750  300           
18 21.09.17 350 (С) 20000 м  слаб. морось{дождь}  10/10 180 м 
[St]
+2 +2 100 +3  1012.1  0.7  750  300           
21 21.09.17 340 (С) 10 км  слаб. дождь{морось}  10/10 210 м 
[Sc]
+1.8 +1.8 100 +3  1013.6  1.5  752  301           
00 22.09.17 090 (В) 4000 м  слаб. дождь{морось}  10/10 120 м 
[St]
+2.4 +2.4 100 +3  1014.9  1.2  752  300  +1.8      влажная 
03 22.09.17 070 (В) 20000 м  в посл. час морось{дождь}  10/10 270 м 
[St]
+3.2 +2.2 93 +4  1015.9  753  300           
06 22.09.17 040 (СВ) 20000 м  {дождь, морось}  10/10 750 м 
[St]
+4.4 +1.2 80 +4  1016.2  0.4  754  299           
09 22.09.17 010 (С) 20000 м    10/8 300 м средняя 
[St|Ac und]
+4.2 +2.2 87 +5  1016.3  0.1  754  299           
12 22.09.17 020 (С) 20000 м    10/0 средняя 
[Ac und]
+3 +1.7 91 +2  1016.6  0.2  754  300    +4.4  0.0     
15 22.09.17 010 (С) 20000 м    6/0 средняя 
[Ac trans]
+0.8 +0 94 +1  1017.1  0.4  754  303           
18 22.09.17 040 (СВ) 20000 м    ясно 
+1.6 +0.8 94 +2  1016.5  -0.5  754  302           
21 22.09.17 010 (С) 20000 м    8/3 200 м верхняя 
[St|Ci sp]
-1 -1.6 96 -2  1016  -0.6  753  305           
00 23.09.17 020 (С) 20000 м    10/6 150 м средняя 
[St|Ac und]
+1.5 +0.7 94 1016  0.1  753  302  -1        влажная 
03 23.09.17 030 (СВ) 20000 м    10/3 600 м средняя 
[Sc|Ac und]
+2.6 -0.1 82 +1  1015.1  -0.9  753  300           
06 23.09.17 010 (С) 20000 м    10/0 средняя, верхняя 
[Ac trans|Ci sp]
+5.2 -2.6 57 +4  1013.6  -1.3  752  297           
09 23.09.17 020 (С) 6-12{12}  20000 м    10/4 1000 м средняя 
[Sc|Ac und]
+2.9 -4.3 59 1013.2  -0.5  751  300           
12 23.09.17 010 (С) 5-11{13}  20000 м    10/4 1000 м средняя 
[Sc|Ac und]
+0.9 -3 75 -2  1013.4  0.1  751  302    +5.2       
Время (UTC), дата Ветер
(°,м/с) 
Видим.   Явления Облачность Т
(°С)
Тd
(°С)
f(%) Тe
(°С)
Pmin
(гПа)
dP
(гПа)
Po
(мм)
O2
(г/м3)
Тmin Tmax R s Состояние
почвы

Для получения пояснительной информации подведите курсор к названию столбца.

ПОГОДА в Жиганске - архив

Всё, что Вы хотите узнать о погоде в Жиганске - удобно и подробно!

Выберите нужную дату (начиная с 1 января 2015* года) и нажмите кнопку "Найти".
Будут отображены архивные сводки погоды по пункту Жиганск, начиная с указанной даты.


Отображать данные в формате CSV (для использования в таблицах Excel)


Внимание! Наш архив погоды предназначен исключительно для личного некоммерческого использования в познавательных целях. Если Вам необходимы официальные справки о состоянии погоды (для производственных, юридических, коммерческих и т.п. целей), обращайтесь в органы Росгидромета.

*Примечание: данная дата относится к архиву по метеостанциям СССР (Россия, СНГ, Балтия).
Архив по метеостанциям Зарубежной Европы и Азии (кроме Китая) хранится 10 дней, по другим регионам земного шара (Китай, Африка, Америка, Австралия, Океания) - 1 день.

Жиганск - район местоположения метеостанции


Название, широта, долгота, высота метеостанции:
Жиганск 66.8°ш. 123.4°д. 92 м над ур. моря [Российская Федерация]

Дополнительная информация

В oтличие oт бoльшинства пoгoдных сайтoв мы публикуем пoдрoбную метеoинфoрмацию в детальнoм прoфессиoнальнoм фoрмате.

Характеристики температуры и влажнoсти вoздуха измеряются на высoте 2 м в тени вдали oт зданий и деревьев.
Скoрoсть ветра измеряется на высoте 10 м (на урoвне рoста челoвека скoрoсть ветра ниже в 1.5-2 раза). Если метеoстанция нахoдится в гoрoде или в лесу, тo скoрoсть ветра занижена на 2-4 м/с пo сравнению с oткрытым местoм. Скoрoсть ветра над акватoриями крупных рек и oзёр, а также на вершинах хoлмoв на 2-5 м/с выше, чем в oбычных услoвиях.
Атмoсфернoе давление в разных тoчках местнoсти мoжет значительнo oтличаться oт давления на метеoстанции, в зависимoсти oт услoвий рельефа (при пoдъёме на 10 м давление пoнижается примернo на 1 мм рт.ст.).